Location: T�chigga el Be�da
(16.4766°N, 9.3887°W)
Time: 14:22:12
(UTC+00:00)

Skynet4D Del rocket - Pass Details

Date: 27 February 2020
Orbit: 763 x 1291 km, 26.9° (Epoch: 04 April)

Event Time Altitude Azimuth Distance (km) Brightness Sun altitude
Rises 20:37:27 0° 296° (WNW) 3,451 7.8 -27.9°
Reaches altitude 10° 20:39:58 10° 302° (WNW) 2,581 6.9 -28.5°
Enters shadow 20:45:31 49° 3° (N) 1,261 4.4 -29.9°
